Showing default

FLOCK 4H 30, 66733

Orbit data source: Space-Track

FLOCK 4H 30, 66733 is a payload satellite owned by Planet (US) in SSO that was launched on Fri, 28 Nov 2025 UTC via an FALCON 9 launch vehicle from the Air Force Western Test Range (AFWTR). Payload-class satellites include a variety of spacecraft equipped with specific instruments for various scientific and technological missions. These include communications satellites like Starlink; space stations such as the ISS; scientific satellites like the Hubble; Earth observation satellites from companies like Planet Labs, Umbra, and HawkEye 360; GPS; miniature CubeSats for education and research; and military/defense satellites.

Loading next visibility...
Identifier
66733, 2025-276BV
Orbit
SSO
Country
Flag of USUS
Related business
Manufacturer
Planet
Mission
Operational Commercial Imaging
Bus & Motor
CUBESAT 3U, Unknown motor
Mass
5.7 kg wet, 5.7 kg dry
Launch date (UTC)
2025-11-28 (9 months ago)
Launch vehicle
FALCON 9
Launch site
Air Force Western Test Range (AFWTR)
Object type
Payload
Rocket body
Debris
Shape & HBR
Box + 2 Pan, 1.0 m
Radar Cross Section
0.072 m², Medium (>0.1 m² and < 1m²)

Expand to show TLE details & history
Last TLE update: 19 hours ago

TLE from 19 hours ago
0 FLOCK 4H 30
1 66733U 25276BV  26238.18695884  .00005685  00000-0  26221-3 0  9997
2 66733  97.4191 310.6632 0005852 118.6995 241.4829 15.20626477 41058
Epoch: 2026-08-26T04:29Z
TLE epoch observation values (Epoch: 2026-08-26T04:29:13.243Z)
Latitude
-0.00007°
Longitude
-91.08553°
Altitude
508.966 km
Speed
7.608 km/s
True Right ascension
20h 42m 39s
True Declination
0° 00' 00"
Sunlit
Object was in full shadow at epoch
Visualization orbit readout
Latitude
Unknown
Longitude
Unknown
Altitude
Unknown
Speed
Unknown
Apparent Right ascension
Unknown
Apparent Declination
Unknown
Sunlit
N/A
Visualization observer readout
Local Sidereal Time
15:13:54
Azimuth
Unknown
Elevation
Unknown
Doppler factor
Unknown
Orbital elements
Apogee altitude
504.941 km
Perigee altitude
496.89 km
Semi-major axis
6,879.052 km
Eccentricity
0.00059
Inclination
97.4191°
RAAN
310.6632°
Arg. of periapsis
118.6995°
True anomaly
241.424°
Mean anomaly
241.4829°
Eccentric anomaly
241.45345°
Mean motion
3.80409 °/min
Orbital period
94.64 mins
BSTAR
0.00026221
Loading maneuver chart data...
Computing Atmospheric mass density...
Loading historical data...
Loading historical data...
Loading historical data...
Loading historical data...
Loading historical data...
Loading historical data...
Loading historical data...

Documentation

Showing up to 5 results
|